Time,TemperatureF,DewpointF,PressureIn,WindDirection,WindDirectionDegrees,WindSpeedMPH,WindSpeedGustMPH,Humidity,HourlyPrecipIn,Conditions,Clouds,dailyrainin,SolarRadiationWatts/m^2,SoftwareType,DateUTC
2013-01-19 00:00:00,18.6,15.4,29.85,North,359,0.0,0.0,87,0.00,CLR,OVC,0.00,0.0,WeatherDisplay:10.37,2013-01-19 06:00:00,
2013-01-19 00:05:00,18.6,15.4,29.86,North,355,5.0,5.0,87,0.00,CLR,OVC,0.00,0.0,WeatherDisplay:10.37,2013-01-19 06:05:00,
2013-01-19 00:10:00,18.6,15.4,29.85,North,355,2.3,2.3,87,0.00,CLR,OVC,0.00,0.0,WeatherDisplay:10.37,2013-01-19 06:10:00,
2013-01-19 00:16:00,18.6,15.4,29.86,NNW,348,5.0,5.0,87,0.00,CLR,OVC,0.00,0.0,WeatherDisplay:10.37,2013-01-19 06:16:00,
2013-01-19 00:21:00,18.8,15.6,29.86,NNW,336,3.5,3.5,87,0.00,CLR,OVC,0.00,0.0,WeatherDisplay:10.37,2013-01-19 06:21:00,
2013-01-19 00:26:00,18.8,15.6,29.86,NNW,336,3.5,3.5,87,0.00,CLR,OVC,0.00,0.0,WeatherDisplay:10.37,2013-01-19 06:26:00,
2013-01-19 00:31:00,18.8,15.6,29.86,NNW,336,1.1,1.1,87,0.00,CLR,OVC,0.00,0.0,WeatherDisplay:10.37,2013-01-19 06:31:00,
2013-01-19 00:37:00,18.8,15.6,29.86,NNW,336,2.3,2.3,87,0.00,CLR,OVC,0.00,0.0,WeatherDisplay:10.37,2013-01-19 06:37:00,
2013-01-19 00:42:00,18.9,15.7,29.86,NNW,336,0.0,0.0,87,0.00,CLR,OVC,0.00,0.0,WeatherDisplay:10.37,2013-01-19 06:42:00,
2013-01-19 00:47:00,18.9,15.7,29.86,NNW,336,0.0,0.0,87,0.00,CLR,OVC,0.00,0.0,WeatherDisplay:10.37,2013-01-19 06:47:00,
2013-01-19 00:52:00,18.9,15.7,29.86,NNW,336,0.0,0.0,87,0.00,CLR,OVC,0.00,0.0,WeatherDisplay:10.37,2013-01-19 06:52:00,
2013-01-19 00:57:00,18.9,15.7,29.86,NNW,336,2.3,2.3,87,0.00,CLR,OVC,0.00,0.0,WeatherDisplay:10.37,2013-01-19 06:57:00,
2013-01-19 01:02:00,18.9,15.7,29.85,NNW,336,0.0,0.0,87,0.00,CLR,OVC,0.00,0.0,WeatherDisplay:10.37,2013-01-19 07:02:00,
2013-01-19 01:07:00,18.9,15.7,29.85,NNW,336,2.3,2.3,87,0.00,CLR,OVC,0.00,0.0,WeatherDisplay:10.37,2013-01-19 07:07:00,
2013-01-19 01:12:00,19.1,15.9,29.85,NNW,336,2.3,2.3,87,0.00,CLR,OVC,0.00,0.0,WeatherDisplay:10.37,2013-01-19 07:12:00,
2013-01-19 01:18:00,19.1,15.9,29.86,NNW,336,3.0,3.0,87,0.00,CLR,OVC,0.00,0.0,WeatherDisplay:10.37,2013-01-19 07:18:00,
2013-01-19 01:23:00,19.1,15.9,29.86,NNW,336,1.1,0.0,87,0.00,CLR,OVC,0.00,0.0,WeatherDisplay:10.37,2013-01-19 07:23:00,
2013-01-19 01:28:00,19.1,15.9,29.86,NNW,336,3.5,3.5,87,0.00,CLR,OVC,0.00,0.0,WeatherDisplay:10.37,2013-01-19 07:28:00,
2013-01-19 01:33:00,19.1,15.9,29.86,NNW,336,3.5,3.5,87,0.00,CLR,OVC,0.00,0.0,WeatherDisplay:10.37,2013-01-19 07:33:00,
2013-01-19 01:38:00,19.2,16.0,29.86,NNW,336,2.3,2.3,87,0.00,CLR,OVC,0.00,0.0,WeatherDisplay:10.37,2013-01-19 07:38:00,
2013-01-19 01:43:00,19.2,16.0,29.86,NNW,336,2.3,2.3,87,0.00,CLR,OVC,0.00,0.0,WeatherDisplay:10.37,2013-01-19 07:43:00,
2013-01-19 01:48:00,19.2,16.0,29.86,NNW,336,2.3,2.3,87,0.00,CLR,OVC,0.00,0.0,WeatherDisplay:10.37,2013-01-19 07:48:00,
2013-01-19 01:54:00,19.2,16.2,29.87,NNW,336,2.3,2.3,88,0.00,CLR,OVC,0.00,0.0,WeatherDisplay:10.37,2013-01-19 07:54:00,
2013-01-19 01:59:00,19.2,16.2,29.86,NNW,336,2.3,2.3,88,0.00,CLR,OVC,0.00,0.0,WeatherDisplay:10.37,2013-01-19 07:59:00,
2013-01-19 02:04:00,19.2,16.2,29.87,NNW,336,3.5,3.5,88,0.00,CLR,OVC,0.00,0.0,WeatherDisplay:10.37,2013-01-19 08:04:00,
2013-01-19 02:09:00,19.2,16.2,29.86,NNW,336,3.5,3.5,88,0.00,CLR,OVC,0.00,0.0,WeatherDisplay:10.37,2013-01-19 08:09:00,
2013-01-19 02:14:00,19.4,16.4,29.86,NNW,336,2.3,2.3,88,0.00,CLR,OVC,0.00,0.0,WeatherDisplay:10.37,2013-01-19 08:14:00,
2013-01-19 02:19:00,19.4,16.4,29.87,NNW,336,3.5,3.5,88,0.00,CLR,OVC,0.00,0.0,WeatherDisplay:10.37,2013-01-19 08:19:00,
2013-01-19 02:24:00,19.4,16.4,29.86,NNW,336,3.5,3.5,88,0.00,CLR,OVC,0.00,0.0,WeatherDisplay:10.37,2013-01-19 08:24:00,
2013-01-19 02:29:00,19.4,16.4,29.86,NNW,336,3.5,3.5,88,0.00,CLR,OVC,0.00,0.0,WeatherDisplay:10.37,2013-01-19 08:29:00,
2013-01-19 02:35:00,19.4,16.4,29.86,NNW,335,3.5,3.5,88,0.00,CLR,OVC,0.00,0.0,WeatherDisplay:10.37,2013-01-19 08:35:00,
2013-01-19 02:40:00,19.4,16.5,29.86,NNW,335,2.0,3.0,88,0.00,CLR,OVC,0.00,0.0,WeatherDisplay:10.37,2013-01-19 08:40:00,
2013-01-19 02:45:00,19.5,16.5,29.85,NNW,335,4.0,4.0,88,0.00,CLR,OVC,0.00,0.0,WeatherDisplay:10.37,2013-01-19 08:45:00,
2013-01-19 02:50:00,19.5,16.5,29.84,NNW,335,2.0,4.0,88,0.00,CLR,OVC,0.00,0.0,WeatherDisplay:10.37,2013-01-19 08:50:00,
2013-01-19 02:55:00,19.5,16.5,29.84,NNW,335,3.5,3.5,88,0.00,CLR,OVC,0.00,0.0,WeatherDisplay:10.37,2013-01-19 08:55:00,
2013-01-19 03:00:00,19.7,16.7,29.83,NNW,335,3.5,3.5,88,0.00,CLR,OVC,0.00,0.0,WeatherDisplay:10.37,2013-01-19 09:00:00,
2013-01-19 03:05:00,19.7,16.7,29.84,NNW,335,3.0,3.0,88,0.00,CLR,OVC,0.00,0.0,WeatherDisplay:10.37,2013-01-19 09:05:00,
2013-01-19 03:10:00,19.7,16.7,29.84,NNW,335,2.3,2.3,88,0.00,CLR,OVC,0.00,0.0,WeatherDisplay:10.37,2013-01-19 09:10:00,
2013-01-19 03:15:00,19.7,16.7,29.84,NNW,335,1.1,0.0,88,0.00,CLR,OVC,0.00,0.0,WeatherDisplay:10.37,2013-01-19 09:15:00,
2013-01-19 03:20:00,19.7,16.7,29.84,NNW,335,1.1,1.1,88,0.00,CLR,OVC,0.00,0.0,WeatherDisplay:10.37,2013-01-19 09:20:00,
2013-01-19 03:25:00,19.9,17.2,29.83,NNW,335,3.5,3.5,89,0.00,CLR,OVC,0.00,0.0,WeatherDisplay:10.37,2013-01-19 09:25:00,
2013-01-19 03:31:00,19.9,17.2,29.83,NNW,335,5.0,5.0,89,0.00,CLR,OVC,0.00,0.0,WeatherDisplay:10.37,2013-01-19 09:31:00,
2013-01-19 03:36:00,19.9,17.2,29.82,NNW,335,2.0,2.0,89,0.00,CLR,OVC,0.00,0.0,WeatherDisplay:10.37,2013-01-19 09:36:00,
2013-01-19 03:41:00,20.0,17.3,29.82,NNW,335,1.1,1.1,89,0.00,CLR,OVC,0.00,0.0,WeatherDisplay:10.37,2013-01-19 09:41:00,
2013-01-19 03:46:00,20.0,17.3,29.81,NNW,339,5.0,5.0,89,0.00,CLR,OVC,0.00,0.0,WeatherDisplay:10.37,2013-01-19 09:46:00,
2013-01-19 03:51:00,20.0,17.3,29.81,NNW,339,4.6,4.6,89,0.00,CLR,OVC,0.00,0.0,WeatherDisplay:10.37,2013-01-19 09:51:00,
2013-01-19 03:56:00,20.0,17.3,29.81,NNW,340,2.3,2.3,89,0.00,CLR,OVC,0.00,0.0,WeatherDisplay:10.37,2013-01-19 09:56:00,
2013-01-19 04:02:00,20.0,17.3,29.81,NNW,340,2.3,2.3,89,0.00,CLR,OVC,0.00,0.0,WeatherDisplay:10.37,2013-01-19 10:02:00,
2013-01-19 04:07:00,20.0,17.0,29.81,NNW,340,3.5,3.5,88,0.00,CLR,OVC,0.00,0.0,WeatherDisplay:10.37,2013-01-19 10:07:00,
2013-01-19 04:12:00,19.9,16.9,29.81,NNW,340,3.5,3.5,88,0.00,CLR,OVC,0.00,0.0,WeatherDisplay:10.37,2013-01-19 10:12:00,
2013-01-19 04:17:00,19.9,16.9,29.80,NNW,341,2.3,2.3,88,0.00,CLR,OVC,0.00,0.0,WeatherDisplay:10.37,2013-01-19 10:17:00,
2013-01-19 04:22:00,19.7,16.7,29.80,NNW,342,2.3,2.3,88,0.00,CLR,OVC,0.00,0.0,WeatherDisplay:10.37,2013-01-19 10:22:00,
2013-01-19 04:27:00,19.7,16.7,29.79,NNE,15,4.0,4.0,88,0.00,CLR,OVC,0.00,0.0,WeatherDisplay:10.37,2013-01-19 10:27:00,
2013-01-19 04:32:00,19.5,16.5,29.79,NE,38,5.0,5.0,88,0.00,CLR,OVC,0.00,0.0,WeatherDisplay:10.37,2013-01-19 10:32:00,
2013-01-19 04:38:00,19.4,16.2,29.78,ENE,59,5.8,5.8,87,0.00,CLR,OVC,0.00,0.0,WeatherDisplay:10.37,2013-01-19 10:38:00,
2013-01-19 04:43:00,19.2,16.0,29.78,ENE,69,4.6,4.6,87,0.00,CLR,OVC,0.00,0.0,WeatherDisplay:10.37,2013-01-19 10:43:00,
2013-01-19 04:48:00,19.2,16.0,29.78,ENE,72,4.6,4.6,87,0.00,CLR,OVC,0.00,0.0,WeatherDisplay:10.37,2013-01-19 10:48:00,
2013-01-19 04:53:00,19.1,15.9,29.78,East,85,5.0,5.0,87,0.00,CLR,OVC,0.00,0.0,WeatherDisplay:10.37,2013-01-19 10:53:00,
2013-01-19 04:58:00,18.9,15.7,29.78,East,85,3.5,3.5,87,0.00,CLR,OVC,0.00,0.0,WeatherDisplay:10.37,2013-01-19 10:58:00,
2013-01-19 05:03:00,18.9,15.7,29.77,East,85,4.0,4.0,87,0.00,CLR,OVC,0.00,0.0,WeatherDisplay:10.37,2013-01-19 11:03:00,
2013-01-19 05:08:00,18.8,15.6,29.77,East,85,4.6,4.6,87,0.00,CLR,OVC,0.00,0.0,WeatherDisplay:10.37,2013-01-19 11:08:00,
2013-01-19 05:13:00,18.8,15.6,29.76,East,85,3.5,3.5,87,0.00,CLR,OVC,0.00,0.0,WeatherDisplay:10.37,2013-01-19 11:13:00,
2013-01-19 06:48:00,18.8,16.4,29.73,SE,135,4.0,4.0,90,0.00,CLR,OVC,0.00,0.0,WeatherDisplay:10.37,2013-01-19 12:48:00,
2013-01-19 06:49:00,18.8,16.6,29.74,SE,135,3.5,3.5,91,0.00,CLR,OVC,0.00,0.0,WeatherDisplay:10.37,2013-01-19 12:49:00,
2013-01-19 06:50:00,18.8,16.4,29.74,SE,135,4.0,4.0,90,0.00,CLR,OVC,0.00,0.0,WeatherDisplay:10.37,2013-01-19 12:50:00,
2013-01-19 06:55:00,18.9,16.7,29.74,SE,135,3.5,3.5,91,0.00,CLR,OVC,0.00,0.0,WeatherDisplay:10.37,2013-01-19 12:55:00,
2013-01-19 07:00:00,18.9,16.4,29.75,SE,139,5.0,6.0,90,0.00,CLR,OVC,0.00,0.0,WeatherDisplay:10.37,2013-01-19 13:00:00,
2013-01-19 07:05:00,18.8,16.4,29.76,SSE,160,5.8,5.8,90,0.00,CLR,OVC,0.00,0.0,WeatherDisplay:10.37,2013-01-19 13:05:00,
2013-01-19 07:10:00,18.8,16.4,29.77,South,176,5.0,5.0,90,0.00,CLR,OVC,0.00,0.0,WeatherDisplay:10.37,2013-01-19 13:10:00,
2013-01-19 07:15:00,18.8,16.1,29.76,South,177,4.0,4.0,89,0.00,CLR,OVC,0.00,0.0,WeatherDisplay:10.37,2013-01-19 13:15:00,
2013-01-19 07:20:00,18.6,16.2,29.76,South,177,3.5,3.5,90,0.00,CLR,OVC,0.00,0.0,WeatherDisplay:10.37,2013-01-19 13:20:00,
2013-01-19 07:25:00,18.6,16.2,29.76,South,177,3.5,3.5,90,0.00,CLR,OVC,0.00,0.0,WeatherDisplay:10.37,2013-01-19 13:25:00,
2013-01-19 07:31:00,18.6,15.9,29.75,South,177,5.8,5.8,89,0.00,CLR,OVC,0.00,0.0,WeatherDisplay:10.37,2013-01-19 13:31:00,
2013-01-19 07:36:00,18.6,16.2,29.75,South,183,5.8,5.8,90,0.00,CLR,OVC,0.00,0.0,WeatherDisplay:10.37,2013-01-19 13:36:00,
2013-01-19 07:41:00,18.6,16.2,29.75,South,184,4.6,4.6,90,0.00,CLR,OVC,0.00,0.0,WeatherDisplay:10.37,2013-01-19 13:41:00,
2013-01-19 07:46:00,18.6,16.2,29.75,South,184,4.0,4.0,90,0.00,CLR,OVC,0.00,0.0,WeatherDisplay:10.37,2013-01-19 13:46:00,
2013-01-19 07:51:00,18.8,16.4,29.75,South,184,5.0,5.0,90,0.00,CLR,OVC,0.00,0.0,WeatherDisplay:10.37,2013-01-19 13:51:00,
2013-01-19 07:57:00,18.8,16.4,29.75,South,184,3.5,3.5,90,0.00,CLR,OVC,0.00,0.0,WeatherDisplay:10.37,2013-01-19 13:57:00,
2013-01-19 08:02:00,18.9,16.7,29.74,South,184,4.6,4.6,91,0.00,CLR,OVC,0.00,0.0,WeatherDisplay:10.37,2013-01-19 14:02:00,
2013-01-19 08:07:00,18.9,16.7,29.74,South,184,5.8,5.8,91,0.00,CLR,OVC,0.00,0.0,WeatherDisplay:10.37,2013-01-19 14:07:00,
2013-01-19 08:12:00,19.1,16.9,29.74,South,184,5.8,5.8,91,0.00,CLR,OVC,0.00,0.0,WeatherDisplay:10.37,2013-01-19 14:12:00,
2013-01-19 08:17:00,19.2,17.0,29.73,South,184,8.1,8.1,91,0.00,CLR,OVC,0.00,0.0,WeatherDisplay:10.37,2013-01-19 14:17:00,
2013-01-19 08:22:00,19.4,17.2,29.74,South,184,5.0,5.0,91,0.00,CLR,OVC,0.00,0.0,WeatherDisplay:10.37,2013-01-19 14:22:00,
2013-01-19 08:27:00,19.5,17.6,29.74,South,184,5.0,5.0,92,0.00,CLR,OVC,0.00,0.0,WeatherDisplay:10.37,2013-01-19 14:27:00,
2013-01-19 08:33:00,19.7,17.8,29.73,South,184,6.9,6.9,92,0.00,CLR,OVC,0.00,0.0,WeatherDisplay:10.37,2013-01-19 14:33:00,
2013-01-19 08:38:00,20.0,18.1,29.73,South,184,6.9,6.9,92,0.00,CLR,OVC,0.00,0.0,WeatherDisplay:10.37,2013-01-19 14:38:00,
2013-01-19 08:43:00,20.2,18.2,29.73,South,184,5.0,5.0,92,0.00,CLR,OVC,0.00,0.0,WeatherDisplay:10.37,2013-01-19 14:43:00,
2013-01-19 08:48:00,20.5,18.5,29.73,South,184,6.9,6.9,92,0.00,CLR,OVC,0.00,0.0,WeatherDisplay:10.37,2013-01-19 14:48:00,
2013-01-19 08:53:00,20.6,18.6,29.73,South,184,5.0,5.0,92,0.00,CLR,OVC,0.00,0.0,WeatherDisplay:10.37,2013-01-19 14:53:00,
2013-01-19 08:58:00,21.0,19.0,29.73,South,184,3.5,3.5,92,0.00,CLR,OVC,0.00,0.0,WeatherDisplay:10.37,2013-01-19 14:58:00,
2013-01-19 09:03:00,21.3,19.6,29.73,South,184,5.8,5.8,93,0.00,OVC,,0.00,0.0,WeatherDisplay:10.37,2013-01-19 15:03:00,
2013-01-19 09:08:00,21.6,19.9,29.73,South,187,5.0,5.0,93,0.00,OVC,,0.00,0.0,WeatherDisplay:10.37,2013-01-19 15:08:00,
2013-01-19 09:14:00,21.9,20.2,29.73,South,189,9.0,9.0,93,0.00,OVC,,0.00,0.0,WeatherDisplay:10.37,2013-01-19 15:14:00,
2013-01-19 09:19:00,22.2,20.5,29.72,South,189,6.0,6.0,93,0.00,OVC,,0.00,0.0,WeatherDisplay:10.37,2013-01-19 15:19:00,
2013-01-19 09:24:00,22.5,20.8,29.72,South,187,4.0,4.0,93,0.00,OVC,,0.00,0.0,WeatherDisplay:10.37,2013-01-19 15:24:00,
2013-01-19 09:29:00,22.9,21.2,29.72,South,185,8.1,8.1,93,0.00,OVC,,0.00,0.0,WeatherDisplay:10.37,2013-01-19 15:29:00,
2013-01-19 09:34:00,23.2,21.5,29.71,South,184,10.4,10.4,93,0.00,OVC,,0.00,0.0,WeatherDisplay:10.37,2013-01-19 15:34:00,
2013-01-19 09:39:00,23.5,21.8,29.70,South,186,9.2,9.2,93,0.00,OVC,,0.00,0.0,WeatherDisplay:10.37,2013-01-19 15:39:00,
2013-01-19 09:44:00,23.9,22.2,29.70,South,190,10.4,10.4,93,0.00,OVC,,0.00,0.0,WeatherDisplay:10.37,2013-01-19 15:44:00,
2013-01-19 09:50:00,24.2,22.5,29.70,SSW,208,12.7,12.7,93,0.00,OVC,,0.00,0.0,WeatherDisplay:10.37,2013-01-19 15:50:00,
2013-01-19 09:55:00,24.5,22.8,29.70,SSW,202,10.4,10.4,93,0.00,OVC,,0.00,0.0,WeatherDisplay:10.37,2013-01-19 15:55:00,
2013-01-19 10:00:00,24.8,23.0,29.70,SSW,204,6.0,12.0,93,0.00,OVC,OVC,0.00,0.0,WeatherDisplay:10.37,2013-01-19 16:00:00,
2013-01-19 10:05:00,25.1,23.4,29.70,SW,218,10.4,10.4,93,0.00,OVC,,0.00,0.0,WeatherDisplay:10.37,2013-01-19 16:05:00,
2013-01-19 10:10:00,25.4,23.7,29.70,SW,226,13.0,13.0,93,0.00,OVC,,0.00,0.0,WeatherDisplay:10.37,2013-01-19 16:10:00,
2013-01-19 10:15:00,25.7,24.0,29.70,SSW,212,9.2,9.2,93,0.00,OVC,,0.00,0.0,WeatherDisplay:10.37,2013-01-19 16:15:00,
2013-01-19 10:20:00,25.8,24.1,29.69,SW,217,15.0,15.0,93,0.00,OVC,,0.00,0.0,WeatherDisplay:10.37,2013-01-19 16:20:00,
2013-01-19 10:25:00,26.1,24.4,29.69,SSW,208,10.4,10.4,93,0.00,OVC,,0.00,0.0,WeatherDisplay:10.37,2013-01-19 16:25:00,
2013-01-19 10:30:00,26.4,24.7,29.69,SW,227,16.1,16.1,93,0.00,OVC,,0.00,0.0,WeatherDisplay:10.37,2013-01-19 16:30:00,
2013-01-19 10:35:00,26.6,24.8,29.69,WSW,237,13.0,13.0,93,0.00,OVC,,0.00,0.0,WeatherDisplay:10.37,2013-01-19 16:35:00,
2013-01-19 10:41:00,26.9,25.1,29.69,SW,234,11.5,11.5,93,0.00,OVC,,0.00,0.0,WeatherDisplay:10.37,2013-01-19 16:41:00,
2013-01-19 10:46:00,27.2,25.4,29.69,SW,232,11.5,11.5,93,0.00,OVC,,0.00,0.0,WeatherDisplay:10.37,2013-01-19 16:46:00,
2013-01-19 10:51:00,27.5,25.7,29.69,SW,219,15.0,15.0,93,0.00,OVC,,0.00,0.0,WeatherDisplay:10.37,2013-01-19 16:51:00,
2013-01-19 10:56:00,27.8,26.0,29.68,SSW,211,12.7,12.7,93,0.00,OVC,,0.00,0.0,WeatherDisplay:10.37,2013-01-19 16:56:00,
2013-01-19 11:01:00,28.1,26.3,29.67,SW,227,8.1,8.1,93,0.00,OVC,,0.00,0.0,WeatherDisplay:10.37,2013-01-19 17:01:00,
2013-01-19 11:06:00,28.2,26.4,29.68,SW,231,16.0,16.0,93,0.00,OVC,,0.00,0.0,WeatherDisplay:10.37,2013-01-19 17:06:00,
2013-01-19 11:11:00,28.4,26.6,29.68,WSW,248,15.0,15.0,93,0.00,OVC,,0.00,0.0,WeatherDisplay:10.37,2013-01-19 17:11:00,
2013-01-19 11:17:00,28.7,26.7,29.67,SW,227,13.0,13.0,92,0.00,OVC,,0.00,0.0,WeatherDisplay:10.37,2013-01-19 17:17:00,
2013-01-19 11:22:00,28.8,26.8,29.67,West,261,16.1,16.1,92,0.00,OVC,,0.00,0.0,WeatherDisplay:10.37,2013-01-19 17:22:00,
2013-01-19 11:27:00,29.0,27.0,29.66,West,266,14.0,14.0,92,0.00,OVC,,0.00,0.0,WeatherDisplay:10.37,2013-01-19 17:27:00,
2013-01-19 11:32:00,29.1,27.1,29.65,WSW,241,14.0,14.0,92,0.00,OVC,,0.00,0.0,WeatherDisplay:10.37,2013-01-19 17:32:00,
2013-01-19 11:38:00,29.4,27.4,29.65,SW,232,14.0,14.0,92,0.00,OVC,,0.00,0.0,WeatherDisplay:10.37,2013-01-19 17:38:00,
2013-01-19 11:43:00,29.5,27.5,29.65,WSW,252,11.5,11.5,92,0.00,OVC,,0.00,0.0,WeatherDisplay:10.37,2013-01-19 17:43:00,
2013-01-19 11:48:00,29.7,27.7,29.64,WSW,252,13.8,13.8,92,0.00,OVC,,0.00,0.0,WeatherDisplay:10.37,2013-01-19 17:48:00,
2013-01-19 11:54:00,29.8,27.5,29.64,West,261,12.7,12.7,91,0.00,OVC,,0.00,0.0,WeatherDisplay:10.37,2013-01-19 17:54:00,
2013-01-19 11:59:00,30.1,27.8,29.64,WSW,241,14.0,14.0,91,0.00,OVC,,0.00,0.0,WeatherDisplay:10.37,2013-01-19 17:59:00,
2013-01-19 12:05:00,30.3,28.0,29.63,WSW,244,12.0,12.0,91,0.00,OVC,,0.00,0.0,WeatherDisplay:10.37,2013-01-19 18:05:00,
2013-01-19 12:10:00,30.4,27.8,29.63,WSW,243,9.0,17.0,90,0.00,OVC,OVC,0.00,0.0,WeatherDisplay:10.37,2013-01-19 18:10:00,
2013-01-19 12:15:00,30.6,28.0,29.62,WSW,250,18.4,18.4,90,0.00,OVC,,0.00,0.0,WeatherDisplay:10.37,2013-01-19 18:15:00,
2013-01-19 12:22:00,30.7,27.8,29.62,WSW,248,11.5,11.5,89,0.00,OVC,,0.00,0.0,WeatherDisplay:10.37,2013-01-19 18:22:00,
2013-01-19 12:27:00,30.9,27.8,29.62,SW,232,17.3,17.3,88,0.00,OVC,,0.00,0.0,WeatherDisplay:10.37,2013-01-19 18:27:00,
2013-01-19 12:32:00,31.0,27.9,29.64,WSW,243,18.4,18.4,88,0.00,OVC,,0.00,0.0,WeatherDisplay:10.37,2013-01-19 18:32:00,
2013-01-19 12:37:00,31.0,27.6,29.63,WSW,250,19.0,19.0,87,0.00,OVC,,0.00,0.0,WeatherDisplay:10.37,2013-01-19 18:37:00,
2013-01-19 12:43:00,31.0,27.3,29.63,WSW,252,28.8,28.8,86,0.00,OVC,,0.00,0.0,WeatherDisplay:10.37,2013-01-19 18:43:00,
2013-01-19 12:48:00,30.9,26.9,29.64,WNW,294,19.6,19.6,85,0.00,OVC,,0.00,0.0,WeatherDisplay:10.37,2013-01-19 18:48:00,
2013-01-19 12:53:00,30.9,26.6,29.64,WSW,254,20.7,20.7,84,0.00,OVC,,0.00,0.0,WeatherDisplay:10.37,2013-01-19 18:53:00,
2013-01-19 12:58:00,30.7,26.4,29.63,West,266,19.6,19.6,84,0.00,OVC,,0.00,0.0,WeatherDisplay:10.37,2013-01-19 18:58:00,
2013-01-19 13:04:00,30.7,26.4,29.63,West,266,16.1,16.1,84,0.00,OVC,,0.00,0.0,WeatherDisplay:10.37,2013-01-19 19:04:00,
2013-01-19 13:09:00,30.6,26.1,29.63,West,266,17.3,17.3,83,0.00,OVC,,0.00,0.0,WeatherDisplay:10.37,2013-01-19 19:09:00,
2013-01-19 13:14:00,30.6,26.1,29.62,West,271,18.4,18.4,83,0.00,OVC,,0.00,0.0,WeatherDisplay:10.37,2013-01-19 19:14:00,
2013-01-19 13:20:00,30.4,25.6,29.62,West,266,16.0,21.0,82,0.00,OVC,OVC,0.00,0.0,WeatherDisplay:10.37,2013-01-19 19:20:00,
2013-01-19 13:25:00,30.4,25.6,29.62,West,266,23.0,23.0,82,0.00,OVC,,0.00,0.0,WeatherDisplay:10.37,2013-01-19 19:25:00,
2013-01-19 13:30:00,30.3,25.5,29.63,West,272,16.0,23.0,82,0.00,OVC,OVC,0.00,0.0,WeatherDisplay:10.37,2013-01-19 19:30:00,
2013-01-19 13:35:00,30.3,25.5,29.63,West,271,20.7,20.7,82,0.00,OVC,,0.00,0.0,WeatherDisplay:10.37,2013-01-19 19:35:00,
2013-01-19 13:40:00,30.1,25.3,29.63,WSW,257,21.9,21.9,82,0.00,OVC,,0.00,0.0,WeatherDisplay:10.37,2013-01-19 19:40:00,
2013-01-19 13:45:00,30.1,25.0,29.63,West,275,15.0,15.0,81,0.00,OVC,,0.00,0.0,WeatherDisplay:10.37,2013-01-19 19:45:00,
2013-01-19 13:50:00,30.1,25.0,29.63,West,278,18.4,18.4,81,0.00,OVC,,0.00,0.0,WeatherDisplay:10.37,2013-01-19 19:50:00,
2013-01-19 13:56:00,30.1,25.3,29.63,West,266,19.6,19.6,82,0.00,OVC,,0.00,0.0,WeatherDisplay:10.37,2013-01-19 19:56:00,
2013-01-19 14:01:00,30.1,25.3,29.62,WSW,245,19.6,19.6,82,0.00,OVC,,0.00,0.0,WeatherDisplay:10.37,2013-01-19 20:01:00,
2013-01-19 14:07:00,30.1,24.7,29.62,WNW,287,18.4,18.4,80,0.00,OVC,,0.00,0.0,WeatherDisplay:10.37,2013-01-19 20:07:00,
2013-01-19 14:13:00,30.1,24.7,29.62,WNW,284,24.2,24.2,80,0.00,OVC,,0.00,0.0,WeatherDisplay:10.37,2013-01-19 20:13:00,
2013-01-19 14:18:00,30.1,24.7,29.62,West,266,26.5,26.5,80,0.00,OVC,,0.00,0.0,WeatherDisplay:10.37,2013-01-19 20:18:00,
2013-01-19 14:23:00,30.1,24.7,29.62,WNW,293,25.0,25.0,80,0.00,OVC,,0.00,0.0,WeatherDisplay:10.37,2013-01-19 20:23:00,
2013-01-19 14:29:00,30.3,24.9,29.62,WSW,250,19.6,19.6,80,0.00,OVC,,0.00,0.0,WeatherDisplay:10.37,2013-01-19 20:29:00,
2013-01-19 14:34:00,30.3,24.6,29.61,WSW,256,11.5,11.5,79,0.00,OVC,,0.00,0.0,WeatherDisplay:10.37,2013-01-19 20:34:00,
2013-01-19 14:39:00,30.4,24.4,29.61,West,266,20.7,20.7,78,0.00,OVC,,0.00,0.0,WeatherDisplay:10.37,2013-01-19 20:39:00,
2013-01-19 14:44:00,30.6,24.2,29.61,West,261,17.0,17.0,77,0.00,OVC,,0.00,0.0,WeatherDisplay:10.37,2013-01-19 20:44:00,
2013-01-19 14:49:00,30.6,23.9,29.61,WNW,286,23.0,23.0,76,0.00,OVC,,0.00,0.0,WeatherDisplay:10.37,2013-01-19 20:49:00,
2013-01-19 14:54:00,30.6,23.9,29.61,West,266,18.4,18.4,76,0.00,OVC,,0.00,0.0,WeatherDisplay:10.37,2013-01-19 20:54:00,
2013-01-19 15:00:00,30.6,23.6,29.60,WSW,257,20.7,20.7,75,0.00,OVC,,0.00,0.0,WeatherDisplay:10.37,2013-01-19 21:00:00,
2013-01-19 15:05:00,30.7,23.7,29.61,West,266,19.0,19.0,75,0.00,CLR,OVC,0.00,0.0,WeatherDisplay:10.37,2013-01-19 21:05:00,
2013-01-19 15:11:00,30.7,24.0,29.61,West,278,15.0,15.0,76,0.00,CLR,OVC,0.00,0.0,WeatherDisplay:10.37,2013-01-19 21:11:00,
2013-01-19 15:18:00,30.7,23.7,29.61,West,275,22.0,22.0,75,0.00,CLR,OVC,0.00,0.0,WeatherDisplay:10.37,2013-01-19 21:18:00,
2013-01-19 15:23:00,30.6,23.6,29.60,West,261,13.8,13.8,75,0.00,CLR,OVC,0.00,0.0,WeatherDisplay:10.37,2013-01-19 21:23:00,
2013-01-19 15:28:00,30.6,23.6,29.61,NW,321,22.0,22.0,75,0.00,CLR,OVC,0.00,0.0,WeatherDisplay:10.37,2013-01-19 21:28:00,
2013-01-19 15:33:00,30.4,23.4,29.61,West,266,19.6,19.6,75,0.00,CLR,OVC,0.00,0.0,WeatherDisplay:10.37,2013-01-19 21:33:00,
2013-01-19 15:39:00,30.3,22.4,29.60,WNW,282,28.8,28.8,72,0.00,CLR,OVC,0.00,0.0,WeatherDisplay:10.37,2013-01-19 21:39:00,
2013-01-19 15:45:00,30.1,23.1,29.61,West,266,23.0,23.0,75,0.00,CLR,OVC,0.00,0.0,WeatherDisplay:10.37,2013-01-19 21:45:00,
2013-01-19 15:50:00,30.0,22.7,29.60,WSW,255,23.0,23.0,74,0.00,CLR,OVC,0.00,0.0,WeatherDisplay:10.37,2013-01-19 21:50:00,
2013-01-19 15:55:00,29.8,21.9,29.60,West,266,22.0,22.0,72,0.00,CLR,OVC,0.00,0.0,WeatherDisplay:10.37,2013-01-19 21:55:00,
2013-01-19 16:00:00,29.7,21.8,29.61,West,261,28.8,28.8,72,0.00,CLR,OVC,0.00,0.0,WeatherDisplay:10.37,2013-01-19 22:00:00,
2013-01-19 16:06:00,29.4,22.8,29.62,NW,314,31.1,31.1,76,0.00,CLR,OVC,0.00,0.0,WeatherDisplay:10.37,2013-01-19 22:06:00,
2013-01-19 16:11:00,28.2,22.8,29.64,NW,306,29.9,29.9,80,0.00,CLR,OVC,0.00,0.0,WeatherDisplay:10.37,2013-01-19 22:11:00,
2013-01-19 16:16:00,26.6,21.6,29.65,WNW,295,28.8,28.8,81,0.00,CLR,OVC,0.00,0.0,WeatherDisplay:10.37,2013-01-19 22:16:00,
2013-01-19 16:23:00,24.7,19.7,29.66,NW,304,24.2,24.2,81,0.00,CLR,OVC,0.00,0.0,WeatherDisplay:10.37,2013-01-19 22:23:00,
2013-01-19 16:28:00,23.8,19.1,29.66,NW,314,27.6,27.6,82,0.00,CLR,OVC,0.00,0.0,WeatherDisplay:10.37,2013-01-19 22:28:00,
2013-01-19 16:33:00,22.5,17.5,29.67,NW,317,32.2,32.2,81,0.00,CLR,OVC,0.00,0.0,WeatherDisplay:10.37,2013-01-19 22:33:00,
2013-01-19 16:38:00,21.6,16.4,29.68,WNW,291,29.0,29.0,80,0.00,CLR,OVC,0.00,0.0,WeatherDisplay:10.37,2013-01-19 22:38:00,
2013-01-19 16:44:00,20.2,13.5,29.69,NW,306,26.5,26.5,75,0.00,CLR,OVC,0.00,0.0,WeatherDisplay:10.37,2013-01-19 22:44:00,
2013-01-19 16:49:00,19.1,11.9,29.69,WNW,302,26.5,26.5,73,0.00,CLR,OVC,0.00,0.0,WeatherDisplay:10.37,2013-01-19 22:49:00,
2013-01-19 16:54:00,18.4,11.2,29.70,NW,323,31.0,31.0,73,0.00,CLR,OVC,0.00,0.0,WeatherDisplay:10.37,2013-01-19 22:54:00,
2013-01-19 16:59:00,17.8,9.7,29.71,WNW,302,31.1,31.1,70,0.00,CLR,OVC,0.00,0.0,WeatherDisplay:10.37,2013-01-19 22:59:00,
2013-01-19 17:04:00,17.3,8.9,29.72,West,278,31.0,31.0,69,0.00,CLR,OVC,0.00,0.0,WeatherDisplay:10.37,2013-01-19 23:04:00,
2013-01-19 17:09:00,16.7,7.6,29.73,WNW,288,46.0,46.0,67,0.00,,OVC,0.00,0.0,WeatherDisplay:10.37,2013-01-19 23:09:00,
2013-01-19 17:14:00,16.1,7.4,29.73,NW,315,25.3,25.3,68,0.00,CLR,OVC,0.00,0.0,WeatherDisplay:10.37,2013-01-19 23:14:00,
2013-01-19 17:20:00,15.7,6.7,29.74,NW,305,21.0,35.0,67,0.00,CLR,OVC,0.00,0.0,WeatherDisplay:10.37,2013-01-19 23:20:00,
2013-01-19 17:25:00,15.2,6.5,29.75,West,280,31.1,31.1,68,0.00,CLR,OVC,0.00,0.0,WeatherDisplay:10.37,2013-01-19 23:25:00,
2013-01-19 17:30:00,15.1,5.8,29.75,WNW,303,36.0,36.0,66,0.00,,OVC,0.00,0.0,WeatherDisplay:10.37,2013-01-19 23:30:00,
2013-01-19 17:35:00,14.9,5.9,29.75,WNW,302,19.6,19.6,67,0.00,CLR,OVC,0.00,0.0,WeatherDisplay:10.37,2013-01-19 23:35:00,
2013-01-19 17:40:00,14.8,6.1,29.76,WNW,295,28.8,28.8,68,0.00,CLR,OVC,0.00,0.0,WeatherDisplay:10.37,2013-01-19 23:40:00,
2013-01-19 17:45:00,14.6,5.6,29.76,WNW,290,27.0,27.0,67,0.00,CLR,OVC,0.00,0.0,WeatherDisplay:10.37,2013-01-19 23:45:00,
2013-01-19 17:50:00,14.3,6.3,29.77,West,279,26.5,26.5,70,0.00,CLR,OVC,0.00,0.0,WeatherDisplay:10.37,2013-01-19 23:50:00,
2013-01-19 17:56:00,13.8,5.8,29.78,WNW,287,32.2,32.2,70,0.00,CLR,OVC,0.00,0.0,WeatherDisplay:10.37,2013-01-19 23:56:00,
2013-01-19 18:01:00,13.3,4.7,29.79,NW,316,39.1,39.1,68,0.00,CLR,OVC,0.00,0.0,WeatherDisplay:10.37,2013-01-20 00:01:00,
2013-01-19 18:08:00,12.8,4.2,29.79,WNW,298,21.9,21.9,68,0.00,CLR,OVC,0.00,0.0,WeatherDisplay:10.37,2013-01-20 00:08:00,
2013-01-19 18:13:00,12.6,4.3,29.80,WNW,302,19.6,19.6,69,0.00,CLR,OVC,0.00,0.0,WeatherDisplay:10.37,2013-01-20 00:13:00,
2013-01-19 18:18:00,12.4,3.8,29.81,NW,304,33.4,33.4,68,0.00,CLR,OVC,0.00,0.0,WeatherDisplay:10.37,2013-01-20 00:18:00,
2013-01-19 18:23:00,11.9,2.7,29.81,NW,304,28.0,28.0,66,0.00,CLR,OVC,0.00,0.0,WeatherDisplay:10.37,2013-01-20 00:23:00,
2013-01-19 18:28:00,11.6,2.1,29.82,WNW,296,29.9,29.9,65,0.00,CLR,OVC,0.00,0.0,WeatherDisplay:10.37,2013-01-20 00:28:00,
2013-01-19 18:33:00,11.4,2.6,29.83,WNW,283,21.0,21.0,67,0.00,CLR,OVC,0.00,0.0,WeatherDisplay:10.37,2013-01-20 00:33:00,
2013-01-19 18:38:00,10.9,2.4,29.83,WSW,256,34.5,34.5,68,0.00,CLR,OVC,0.00,0.0,WeatherDisplay:10.37,2013-01-20 00:38:00,
2013-01-19 18:44:00,10.4,1.9,29.83,WNW,298,32.2,32.2,68,0.00,CLR,OVC,0.00,0.0,WeatherDisplay:10.37,2013-01-20 00:44:00,
2013-01-19 18:49:00,9.9,1.8,29.84,WNW,288,31.1,31.1,69,0.00,CLR,OVC,0.00,0.0,WeatherDisplay:10.37,2013-01-20 00:49:00,
2013-01-19 18:54:00,9.5,1.1,29.84,West,266,27.0,27.0,68,0.00,CLR,OVC,0.00,0.0,WeatherDisplay:10.37,2013-01-20 00:54:00,
2013-01-19 18:59:00,9.3,2.1,29.85,NW,311,29.9,29.9,72,0.00,CLR,OVC,0.00,0.0,WeatherDisplay:10.37,2013-01-20 00:59:00,
2013-01-19 19:04:00,9.0,1.8,29.86,NW,316,34.5,34.5,72,0.00,CLR,OVC,0.00,0.0,WeatherDisplay:10.37,2013-01-20 01:04:00,
2013-01-19 19:09:00,8.6,0.5,29.86,WNW,301,30.0,30.0,69,0.00,CLR,OVC,0.00,0.0,WeatherDisplay:10.37,2013-01-20 01:09:00,
2013-01-19 19:15:00,8.3,-0.4,29.87,WNW,288,28.8,28.8,67,0.00,CLR,OVC,0.00,0.0,WeatherDisplay:10.37,2013-01-20 01:15:00,
2013-01-19 19:20:00,8.1,-0.6,29.87,WNW,287,38.0,38.0,67,0.00,CLR,OVC,0.00,0.0,WeatherDisplay:10.37,2013-01-20 01:20:00,
2013-01-19 19:25:00,7.9,-1.1,29.88,West,277,26.5,26.5,66,0.00,CLR,OVC,0.00,0.0,WeatherDisplay:10.37,2013-01-20 01:25:00,
2013-01-19 19:31:00,7.6,-1.4,29.88,West,261,31.0,31.0,66,0.00,CLR,OVC,0.00,0.0,WeatherDisplay:10.37,2013-01-20 01:31:00,
2013-01-19 19:36:00,7.4,-1.6,29.88,West,271,27.6,27.6,66,0.00,CLR,OVC,0.00,0.0,WeatherDisplay:10.37,2013-01-20 01:36:00,
2013-01-19 19:41:00,7.2,-1.2,29.89,WNW,283,26.5,26.5,68,0.00,CLR,OVC,0.00,0.0,WeatherDisplay:10.37,2013-01-20 01:41:00,
2013-01-19 19:47:00,7.0,-0.7,29.90,NW,306,25.0,25.0,70,0.00,CLR,OVC,0.00,0.0,WeatherDisplay:10.37,2013-01-20 01:47:00,
2013-01-19 19:52:00,6.7,-0.7,29.90,West,276,23.0,23.0,71,0.00,CLR,OVC,0.00,0.0,WeatherDisplay:10.37,2013-01-20 01:52:00,
2013-01-19 19:57:00,6.5,-0.6,29.91,WNW,299,34.5,34.5,72,0.00,CLR,OVC,0.00,0.0,WeatherDisplay:10.37,2013-01-20 01:57:00,
2013-01-19 20:02:00,6.1,-2.2,29.92,NW,322,34.0,34.0,68,0.00,CLR,OVC,0.00,0.0,WeatherDisplay:10.37,2013-01-20 02:02:00,
2013-01-19 20:07:00,5.8,-2.5,29.92,NW,315,33.0,33.0,68,0.00,CLR,OVC,0.00,0.0,WeatherDisplay:10.37,2013-01-20 02:07:00,
2013-01-19 20:12:00,5.6,-2.7,29.92,WNW,302,21.9,21.9,68,0.00,CLR,OVC,0.00,0.0,WeatherDisplay:10.37,2013-01-20 02:12:00,
2013-01-19 20:17:00,5.4,-2.3,29.92,West,278,31.1,31.1,70,0.00,CLR,OVC,0.00,0.0,WeatherDisplay:10.37,2013-01-20 02:17:00,
2013-01-19 20:23:00,5.0,-2.4,29.92,WNW,289,21.9,21.9,71,0.00,CLR,OVC,0.00,0.0,WeatherDisplay:10.37,2013-01-20 02:23:00,
2013-01-19 20:28:00,4.8,-2.5,29.93,WNW,292,25.3,25.3,71,0.00,CLR,OVC,0.00,0.0,WeatherDisplay:10.37,2013-01-20 02:28:00,
2013-01-19 20:33:00,4.7,-2.9,29.94,NW,306,23.0,23.0,70,0.00,CLR,OVC,0.00,0.0,WeatherDisplay:10.37,2013-01-20 02:33:00,
2013-01-19 20:38:00,4.5,-3.4,29.94,NW,304,27.0,27.0,69,0.00,CLR,OVC,0.00,0.0,WeatherDisplay:10.37,2013-01-20 02:38:00,
2013-01-19 20:44:00,4.3,-3.6,29.94,WNW,292,23.0,23.0,69,0.00,CLR,OVC,0.00,0.0,WeatherDisplay:10.37,2013-01-20 02:44:00,
2013-01-19 20:49:00,4.3,-3.6,29.95,WNW,290,25.3,25.3,69,0.00,CLR,OVC,0.00,0.0,WeatherDisplay:10.37,2013-01-20 02:49:00,
2013-01-19 20:54:00,4.1,-3.2,29.95,WNW,295,32.2,32.2,71,0.00,CLR,OVC,0.00,0.0,WeatherDisplay:10.37,2013-01-20 02:54:00,
2013-01-19 20:59:00,3.9,-3.1,29.96,NW,310,25.3,25.3,72,0.00,CLR,OVC,0.00,0.0,WeatherDisplay:10.37,2013-01-20 02:59:00,
2013-01-19 21:04:00,3.7,-3.0,29.97,West,279,17.3,17.3,73,0.00,CLR,OVC,0.00,0.0,WeatherDisplay:10.37,2013-01-20 03:04:00,
2013-01-19 21:09:00,3.7,-2.7,29.97,West,266,17.0,17.0,74,0.00,CLR,OVC,0.00,0.0,WeatherDisplay:10.37,2013-01-20 03:09:00,
2013-01-19 21:15:00,3.5,-3.5,29.98,West,277,21.9,21.9,72,0.00,CLR,OVC,0.00,0.0,WeatherDisplay:10.37,2013-01-20 03:15:00,
2013-01-19 21:20:00,3.3,-4.0,29.98,NW,307,16.0,28.0,71,0.00,CLR,OVC,0.00,0.0,WeatherDisplay:10.37,2013-01-20 03:20:00,
2013-01-19 21:25:00,3.0,-4.9,29.98,WNW,300,13.8,13.8,69,0.00,CLR,OVC,0.00,0.0,WeatherDisplay:10.37,2013-01-20 03:25:00,
2013-01-19 21:30:00,2.8,-5.1,29.99,NW,318,22.0,22.0,69,0.00,CLR,OVC,0.00,0.0,WeatherDisplay:10.37,2013-01-20 03:30:00,
2013-01-19 21:35:00,2.6,-5.3,29.99,West,280,25.3,25.3,69,0.00,CLR,OVC,0.00,0.0,WeatherDisplay:10.37,2013-01-20 03:35:00,
2013-01-19 21:40:00,2.4,-4.9,30.00,NW,310,29.9,29.9,71,0.00,CLR,OVC,0.00,0.0,WeatherDisplay:10.37,2013-01-20 03:40:00,
2013-01-19 21:46:00,2.4,-4.6,30.00,West,266,27.6,27.6,72,0.00,CLR,OVC,0.00,0.0,WeatherDisplay:10.37,2013-01-20 03:46:00,
2013-01-19 21:51:00,2.2,-4.8,30.01,WNW,296,18.0,18.0,72,0.00,CLR,OVC,0.00,0.0,WeatherDisplay:10.37,2013-01-20 03:51:00,
2013-01-19 21:56:00,2.2,-4.5,30.01,West,266,29.9,29.9,73,0.00,CLR,OVC,0.00,0.0,WeatherDisplay:10.37,2013-01-20 03:56:00,
2013-01-19 22:02:00,2.0,-4.7,30.03,NNW,341,31.1,31.1,73,0.00,CLR,OVC,0.00,0.0,WeatherDisplay:10.37,2013-01-20 04:02:00,
2013-01-19 22:08:00,2.0,-4.7,30.03,WNW,296,26.5,26.5,73,0.00,CLR,OVC,0.00,0.0,WeatherDisplay:10.37,2013-01-20 04:08:00,
2013-01-19 22:13:00,2.0,-4.7,30.03,NW,326,18.4,18.4,73,0.00,CLR,OVC,0.00,0.0,WeatherDisplay:10.37,2013-01-20 04:13:00,
2013-01-19 22:18:00,2.0,-4.4,30.03,WNW,290,18.4,18.4,74,0.00,CLR,OVC,0.00,0.0,WeatherDisplay:10.37,2013-01-20 04:18:00,
2013-01-19 22:23:00,1.8,-4.3,30.04,WNW,294,24.2,24.2,75,0.00,CLR,OVC,0.00,0.0,WeatherDisplay:10.37,2013-01-20 04:23:00,
2013-01-19 22:28:00,1.8,-4.3,30.05,WNW,296,19.6,19.6,75,0.00,CLR,OVC,0.00,0.0,WeatherDisplay:10.37,2013-01-20 04:28:00,
2013-01-19 22:33:00,1.8,-4.3,30.05,West,266,24.2,24.2,75,0.00,CLR,OVC,0.00,0.0,WeatherDisplay:10.37,2013-01-20 04:33:00,
2013-01-19 22:38:00,1.8,-4.3,30.05,WNW,290,19.6,19.6,75,0.00,CLR,OVC,0.00,0.0,WeatherDisplay:10.37,2013-01-20 04:38:00,
2013-01-19 22:44:00,1.8,-4.0,30.05,WNW,298,29.9,29.9,76,0.00,CLR,OVC,0.00,0.0,WeatherDisplay:10.37,2013-01-20 04:44:00,
2013-01-19 22:49:00,1.7,-4.1,30.05,WNW,298,17.3,17.3,76,0.00,CLR,OVC,0.00,0.0,WeatherDisplay:10.37,2013-01-20 04:49:00,
2013-01-19 22:54:00,1.7,-4.1,30.06,WNW,294,23.0,23.0,76,0.00,CLR,OVC,0.00,0.0,WeatherDisplay:10.37,2013-01-20 04:54:00,
2013-01-19 22:59:00,1.7,-4.1,30.06,NW,316,13.8,13.8,76,0.00,CLR,OVC,0.00,0.0,WeatherDisplay:10.37,2013-01-20 04:59:00,
2013-01-19 23:00:00,1.7,-4.1,30.06,NW,308,24.2,24.2,76,0.00,CLR,OVC,0.00,0.0,WeatherDisplay:10.37,2013-01-20 05:00:00,
2013-01-19 23:01:00,1.7,-4.1,30.06,NNW,335,24.2,24.2,76,0.00,CLR,OVC,0.00,0.0,WeatherDisplay:10.37,2013-01-20 05:01:00,
2013-01-19 23:03:00,1.7,-4.1,30.07,WNW,294,20.7,20.7,76,0.00,CLR,OVC,0.00,0.0,WeatherDisplay:10.37,2013-01-20 05:03:00,
2013-01-19 23:08:00,1.7,-4.4,30.07,NW,304,16.0,16.0,75,0.00,CLR,OVC,0.00,0.0,WeatherDisplay:10.37,2013-01-20 05:08:00,
2013-01-19 23:13:00,1.5,-4.9,30.07,NW,325,19.6,19.6,74,0.00,CLR,OVC,0.00,0.0,WeatherDisplay:10.37,2013-01-20 05:13:00,
2013-01-19 23:18:00,1.5,-4.9,30.08,WNW,297,23.0,23.0,74,0.00,CLR,OVC,0.00,0.0,WeatherDisplay:10.37,2013-01-20 05:18:00,
2013-01-19 23:23:00,1.3,-5.1,30.08,NW,305,21.9,21.9,74,0.00,CLR,OVC,0.00,0.0,WeatherDisplay:10.37,2013-01-20 05:23:00,
2013-01-19 23:28:00,1.1,-5.5,30.08,West,275,26.5,26.5,73,0.00,CLR,OVC,0.00,0.0,WeatherDisplay:10.37,2013-01-20 05:28:00,
2013-01-19 23:34:00,1.1,-5.5,30.08,West,279,21.9,21.9,73,0.00,CLR,OVC,0.00,0.0,WeatherDisplay:10.37,2013-01-20 05:34:00,
2013-01-19 23:39:00,0.9,-5.7,30.09,WNW,296,21.0,21.0,73,0.00,CLR,OVC,0.00,0.0,WeatherDisplay:10.37,2013-01-20 05:39:00,
2013-01-19 23:44:00,0.9,-6.0,30.09,WNW,298,11.5,11.5,72,0.00,CLR,OVC,0.00,0.0,WeatherDisplay:10.37,2013-01-20 05:44:00,
2013-01-19 23:49:00,0.7,-6.2,30.09,WNW,302,23.0,23.0,72,0.00,CLR,OVC,0.00,0.0,WeatherDisplay:10.37,2013-01-20 05:49:00,
2013-01-19 23:54:00,0.7,-6.2,30.09,WNW,288,16.1,16.1,72,0.00,CLR,OVC,0.00,0.0,WeatherDisplay:10.37,2013-01-20 05:54:00,
2013-01-19 23:59:00,0.5,-6.4,30.10,NNW,332,13.8,13.8,72,0.00,CLR,OVC,0.00,0.0,WeatherDisplay:10.37,2013-01-20 05:59:00,